This demonstration page uses our WeatherBlox Daily Observations layout. Learn more.

Left ArrowRight Arrow

38.89511, -77.03637

Hourly Observations for November 14, 2015

Temp ( °F °C ) Dew Point ( °F °C ) Humidity (%) Winds ( mph kmh ) Pressure ( in mb ) Visibility ( mi km ) Precip ( " mm )
12:52 am 00:52 Partly Cloudy 49 9.4 17 -8.3 28 28 W 13 20 30.03 1017 10 16 0.00 0.00
1:52 am 01:52 Partly Cloudy 49 9.4 20 -6.7 32 32 W 13 20 30.06 1018 10 16 0.00 0.00
1:59 am 01:59 Partly Cloudy 49 9.4 21 -6.1 33 33 W 10 17 30.06 1018 10 16 0.00 0.00
2:52 am 02:52 Mostly Cloudy 48 8.9 22 -5.6 36 36 WNW 16 26 30.08 1019 10 16 0.00 0.00
3:52 am 03:52 Partly Cloudy 48 8.9 22 -5.6 36 36 W 12 19 30.09 1019 10 16 0.00 0.00
4:52 am 04:52 Mostly Clear 47 8.3 22 -5.6 37 37 WNW 10 17 30.11 1020 10 16 0.00 0.00
5:52 am 05:52 Mostly Cloudy 47 8.3 23 -5 39 39 WNW 14 22 30.13 1020 10 16 0.00 0.00
6:52 am 06:52 Mostly Cloudy 47 8.3 24 -4.4 41 41 WNW 10 17 30.16 1021 10 16 0.00 0.00
7:52 am 07:52 Mostly Cloudy 47 8.3 26 -3.3 44 44 W 12 19 30.19 1022 10 16 0.00 0.00
8:52 am 08:52 Mostly Cloudy 48 8.9 27 -2.8 44 44 WNW 16 26 30.21 1023 10 16 0.00 0.00
9:52 am 09:52 Mostly Cloudy 51 10.6 29 -1.7 43 43 NW 16 26 30.22 1024 10 16 0.00 0.00
10:52 am 10:52 Mostly Cloudy 53 11.7 30 -1.1 41 41 NW 14 22 30.24 1024 10 16 0.00 0.00
11:52 am 11:52 Mostly Cloudy 52 11.1 28 -2.2 40 40 WNW 16 26 30.23 1024 10 16 0.00 0.00
12:52 pm 12:52 Partly Cloudy 53 11.7 28 -2.2 38 38 NNW 18 30 30.22 1023 10 16 0.00 0.00
1:52 pm 13:52 Mostly Sunny 54 12.2 27 -2.8 35 35 NW 16 26 30.22 1023 10 16 0.00 0.00
2:52 pm 14:52 Mostly Sunny 54 12.2 27 -2.8 35 35 NW 14 22 30.23 1024 10 16 0.00 0.00
3:52 pm 15:52 Sunny 54 12.2 26 -3.3 34 34 NW 14 22 30.24 1024 10 16 0.00 0.00
4:52 pm 16:52 Sunny 52 11.1 25 -3.9 35 35 WNW 10 17 30.26 1025 10 16 0.00 0.00
5:52 pm 17:52 Clear 51 10.6 26 -3.3 38 38 NW 7 11 30.29 1026 10 16 0.00 0.00
6:52 pm 18:52 Clear 49 9.4 26 -3.3 41 41 NW 7 11 30.29 1026 10 16 0.00 0.00
7:52 pm 19:52 Clear 48 8.9 26 -3.3 42 42 NW 7 11 30.32 1027 10 16 0.00 0.00
8:52 pm 20:52 Clear 48 8.9 26 -3.3 42 42 NNW 7 11 30.33 1027 10 16 0.00 0.00
9:52 pm 21:52 Clear 45 7.2 29 -1.7 54 54 SW 3 6 30.35 1028 10 16 0.00 0.00
10:52 pm 22:52 Clear 42 5.6 29 -1.7 60 60 SW 3 6 30.35 1028 10 16 0.00 0.00
11:52 pm 23:52 Clear 41 5 30 -1.1 65 65 SSW 3 6 30.36 1028 10 16 0.00 0.00

Powered by AerisWeather